Volver al catálogo

FENGYUN 1C DEB

ActivoSSO
NORAD 29996·DEBRIS·🇨🇳 China

Lanzado May 10, 1999 desde Taiyuan Satellite Launch Center

Loading…

Próximos Pases (próximas 24 horas)

TLE

ActualizadoSource: Space-Track

Época: Sep 14, 2026, 02:15 UTC

1 29996U 99025LW  26257.09396324  .00001763  00000-0  93093-3 0  9992
2 29996  99.2911 308.7607 0129775  40.7472 349.8938 14.10991236   150

Sigue FENGYUN 1C DEB en tiempo real con AllMySat

Download on the App Store